Time,TemperatureF,DewpointF,PressureIn,WindDirection,WindDirectionDegrees,WindSpeedMPH,WindSpeedGustMPH,Humidity,HourlyPrecipIn,Conditions,Clouds,dailyrainin,SoftwareType,DateUTC
2013-09-12 00:04:00,68.4,68.1,30.06,South,180,2.2,-999.0,99,-99.99,,,0.00,Acu-Link.com,2013-09-12 04:04:00,
2013-09-12 00:19:00,68.2,67.9,30.05,South,180,0.0,-999.0,99,-99.99,,,0.00,Acu-Link.com,2013-09-12 04:19:00,
2013-09-12 00:34:00,67.8,67.5,30.04,WNW,292,0.0,-999.0,99,-99.99,,,0.00,Acu-Link.com,2013-09-12 04:34:00,
2013-09-12 00:49:00,67.5,67.2,30.04,South,180,1.1,-999.0,99,-99.99,,,0.00,Acu-Link.com,2013-09-12 04:49:00,
2013-09-12 01:05:00,67.5,67.2,30.04,SW,225,0.0,-999.0,99,-99.99,,,0.00,Acu-Link.com,2013-09-12 05:05:00,
2013-09-12 01:20:00,67.3,67.0,30.03,SSW,202,0.0,-999.0,99,-99.99,,,0.00,Acu-Link.com,2013-09-12 05:20:00,
2013-09-12 01:35:00,67.3,67.0,30.02,West,270,1.7,-999.0,99,-99.99,,,0.00,Acu-Link.com,2013-09-12 05:35:00,
2013-09-12 01:50:00,67.1,66.8,30.02,SW,225,2.2,-999.0,99,-99.99,,,0.00,Acu-Link.com,2013-09-12 05:50:00,
2013-09-12 02:05:00,67.3,67.0,30.01,SSW,202,4.2,-999.0,99,-99.99,,,0.00,Acu-Link.com,2013-09-12 06:05:00,
2013-09-12 02:21:00,67.3,67.0,30.01,WNW,292,4.2,-999.0,99,-99.99,,,0.00,Acu-Link.com,2013-09-12 06:21:00,
2013-09-12 02:36:00,67.3,67.0,30.01,SW,225,2.7,-999.0,99,-99.99,,,0.00,Acu-Link.com,2013-09-12 06:36:00,
2013-09-12 02:51:00,67.1,66.8,30.00,West,270,3.7,-999.0,99,-99.99,,,0.00,Acu-Link.com,2013-09-12 06:51:00,
2013-09-12 03:06:00,67.1,66.8,29.99,SSW,202,0.0,-999.0,99,-99.99,,,0.00,Acu-Link.com,2013-09-12 07:06:00,
2013-09-12 03:21:00,67.1,66.8,29.99,West,270,1.7,-999.0,99,-99.99,,,0.00,Acu-Link.com,2013-09-12 07:21:00,
2013-09-12 03:37:00,67.1,66.8,29.99,West,270,1.7,-999.0,99,-99.99,,,0.00,Acu-Link.com,2013-09-12 07:37:00,
2013-09-12 03:52:00,67.1,66.8,29.99,NE,45,0.0,-999.0,99,-99.99,,,0.00,Acu-Link.com,2013-09-12 07:52:00,
2013-09-12 04:07:00,66.9,66.6,29.99,SSW,202,3.7,-999.0,99,-99.99,,,0.00,Acu-Link.com,2013-09-12 08:07:00,
2013-09-12 04:22:00,66.9,66.6,29.99,NW,315,2.7,-999.0,99,-99.99,,,0.00,Acu-Link.com,2013-09-12 08:22:00,
2013-09-12 04:37:00,66.9,66.6,29.98,West,270,4.2,-999.0,99,-99.99,,,0.00,Acu-Link.com,2013-09-12 08:37:00,
2013-09-12 04:52:00,67.5,67.2,29.99,South,180,2.2,-999.0,99,-99.99,,,0.00,Acu-Link.com,2013-09-12 08:52:00,
2013-09-12 05:07:00,67.5,67.2,29.98,SSW,202,1.7,-999.0,99,-99.99,,,0.00,Acu-Link.com,2013-09-12 09:07:00,
2013-09-12 05:22:00,67.5,67.2,29.98,SSE,157,2.7,-999.0,99,-99.99,,,0.00,Acu-Link.com,2013-09-12 09:22:00,
2013-09-12 05:37:00,67.5,67.2,29.98,West,270,3.2,-999.0,99,-99.99,,,0.00,Acu-Link.com,2013-09-12 09:37:00,
2013-09-12 05:53:00,67.6,67.3,29.97,SW,225,3.7,-999.0,99,-99.99,,,0.00,Acu-Link.com,2013-09-12 09:53:00,
2013-09-12 06:08:00,67.6,67.3,29.98,SSE,157,3.2,-999.0,99,-99.99,,,0.00,Acu-Link.com,2013-09-12 10:08:00,
2013-09-12 06:23:00,67.6,67.3,29.97,West,270,3.2,-999.0,99,-99.99,,,0.00,Acu-Link.com,2013-09-12 10:23:00,
2013-09-12 06:38:00,67.8,67.5,29.97,South,180,1.7,-999.0,99,-99.99,,,0.00,Acu-Link.com,2013-09-12 10:38:00,
2013-09-12 06:54:00,68.0,67.7,29.97,NNE,22,0.0,-999.0,99,-99.99,,,0.00,Acu-Link.com,2013-09-12 10:54:00,
2013-09-12 07:09:00,67.8,67.5,29.98,WSW,247,1.7,-999.0,99,-99.99,,,0.00,Acu-Link.com,2013-09-12 11:09:00,
2013-09-12 07:24:00,68.0,67.7,29.97,West,270,0.0,-999.0,99,-99.99,,,0.00,Acu-Link.com,2013-09-12 11:24:00,
2013-09-12 07:39:00,68.2,67.9,29.97,WNW,292,2.7,-999.0,99,-99.99,,,0.01,Acu-Link.com,2013-09-12 11:39:00,
2013-09-12 07:54:00,68.5,68.2,29.97,SSW,202,3.2,-999.0,99,-99.99,,,0.01,Acu-Link.com,2013-09-12 11:54:00,
2013-09-12 08:10:00,68.7,68.4,29.97,WNW,292,5.3,-999.0,99,-99.99,,,0.01,Acu-Link.com,2013-09-12 12:10:00,
2013-09-12 08:25:00,68.9,68.6,29.97,SSE,157,3.2,-999.0,99,-99.99,,,0.01,Acu-Link.com,2013-09-12 12:25:00,
2013-09-12 08:40:00,69.4,69.1,29.96,NW,315,2.2,-999.0,99,-99.99,,,0.01,Acu-Link.com,2013-09-12 12:40:00,
2013-09-12 08:56:00,69.8,69.5,29.96,SSE,157,0.0,-999.0,99,-99.99,,,0.01,Acu-Link.com,2013-09-12 12:56:00,
2013-09-12 09:11:00,70.7,70.4,29.95,West,270,6.8,-999.0,99,-99.99,,,0.01,Acu-Link.com,2013-09-12 13:11:00,
2013-09-12 09:26:00,71.2,70.9,29.95,SW,225,5.8,-999.0,99,-99.99,,,0.01,Acu-Link.com,2013-09-12 13:26:00,
2013-09-12 09:41:00,71.6,71.3,29.95,North,0,6.3,-999.0,99,-99.99,,,0.01,Acu-Link.com,2013-09-12 13:41:00,
2013-09-12 09:56:00,72.1,71.5,29.95,West,270,6.3,-999.0,98,-99.99,,,0.01,Acu-Link.com,2013-09-12 13:56:00,
2013-09-12 10:12:00,72.7,71.8,29.94,SSW,202,5.8,-999.0,97,-99.99,,,0.01,Acu-Link.com,2013-09-12 14:12:00,
2013-09-12 10:27:00,73.0,71.2,29.94,WNW,292,5.3,-999.0,94,-99.99,,,0.01,Acu-Link.com,2013-09-12 14:27:00,
2013-09-12 10:42:00,74.1,71.9,29.93,West,270,2.7,-999.0,93,-99.99,,,0.01,Acu-Link.com,2013-09-12 14:42:00,
2013-09-12 10:57:00,74.5,72.3,29.93,South,180,3.7,-999.0,93,-99.99,,,0.01,Acu-Link.com,2013-09-12 14:57:00,
2013-09-12 11:12:00,75.2,72.4,29.93,West,270,5.8,-999.0,91,-99.99,,,0.01,Acu-Link.com,2013-09-12 15:12:00,
2013-09-12 11:28:00,75.7,71.9,29.93,SW,225,5.8,-999.0,88,-99.99,,,0.01,Acu-Link.com,2013-09-12 15:28:00,
2013-09-12 11:43:00,76.1,71.9,29.92,West,270,4.2,-999.0,87,-99.99,,,0.01,Acu-Link.com,2013-09-12 15:43:00,
2013-09-12 11:58:00,77.4,72.9,29.92,WNW,292,4.7,-999.0,86,-99.99,,,0.01,Acu-Link.com,2013-09-12 15:58:00,
2013-09-12 12:13:00,77.4,72.5,29.91,South,180,2.7,-999.0,85,-99.99,,,0.01,Acu-Link.com,2013-09-12 16:13:00,
2013-09-12 12:28:00,78.4,72.4,29.91,SSW,202,4.7,-999.0,82,-99.99,,,0.01,Acu-Link.com,2013-09-12 16:28:00,
2013-09-12 12:44:00,77.5,71.9,29.90,West,270,4.7,-999.0,83,-99.99,,,0.01,Acu-Link.com,2013-09-12 16:44:00,
2013-09-12 12:59:00,78.3,72.3,29.91,West,270,4.2,-999.0,82,-99.99,,,0.01,Acu-Link.com,2013-09-12 16:59:00,
2013-09-12 13:14:00,78.6,72.3,29.89,West,270,5.3,-999.0,81,-99.99,,,0.01,Acu-Link.com,2013-09-12 17:14:00,
2013-09-12 13:29:00,77.9,70.8,29.90,NNW,337,8.9,-999.0,79,-99.99,,,0.01,Acu-Link.com,2013-09-12 17:29:00,
2013-09-12 13:44:00,78.4,71.7,29.90,West,270,8.3,-999.0,80,-99.99,,,0.01,Acu-Link.com,2013-09-12 17:44:00,
2013-09-12 14:00:00,77.7,72.1,29.89,South,180,3.7,-999.0,83,-99.99,,,0.01,Acu-Link.com,2013-09-12 18:00:00,
2013-09-12 14:15:00,79.2,72.1,29.88,North,0,5.3,-999.0,79,-99.99,,,0.01,Acu-Link.com,2013-09-12 18:15:00,
2013-09-12 14:30:00,75.9,70.0,29.90,NW,315,16.1,-999.0,82,-99.99,,,0.01,Acu-Link.com,2013-09-12 18:30:00,
2013-09-12 14:46:00,66.7,66.1,29.89,WNW,292,6.3,-999.0,98,-99.99,,,0.02,Acu-Link.com,2013-09-12 18:46:00,
2013-09-12 15:01:00,68.2,67.3,29.87,South,180,3.2,-999.0,97,-99.99,,,0.10,Acu-Link.com,2013-09-12 19:01:00,
2013-09-12 15:16:00,68.7,66.6,29.86,West,270,3.7,-999.0,93,-99.99,,,0.10,Acu-Link.com,2013-09-12 19:16:00,
2013-09-12 15:31:00,67.8,66.0,29.86,SW,225,2.7,-999.0,94,-99.99,,,0.10,Acu-Link.com,2013-09-12 19:31:00,
2013-09-12 15:46:00,66.4,65.8,29.85,SW,225,2.2,-999.0,98,-99.99,,,0.10,Acu-Link.com,2013-09-12 19:46:00,
2013-09-12 16:02:00,65.8,65.5,29.83,South,180,5.3,-999.0,99,-99.99,,,0.10,Acu-Link.com,2013-09-12 20:02:00,
2013-09-12 16:17:00,65.7,65.4,29.82,South,180,5.3,-999.0,99,-99.99,,,0.10,Acu-Link.com,2013-09-12 20:17:00,
2013-09-12 16:32:00,66.7,66.1,29.81,East,90,3.7,-999.0,98,-99.99,,,0.10,Acu-Link.com,2013-09-12 20:32:00,
2013-09-12 16:47:00,69.4,67.0,29.80,SSW,202,4.2,-999.0,92,-99.99,,,0.10,Acu-Link.com,2013-09-12 20:47:00,
2013-09-12 17:03:00,69.8,67.0,29.80,West,270,7.3,-999.0,91,-99.99,,,0.10,Acu-Link.com,2013-09-12 21:03:00,
2013-09-12 17:18:00,68.9,67.1,29.80,SW,225,3.2,-999.0,94,-99.99,,,0.10,Acu-Link.com,2013-09-12 21:18:00,
2013-09-12 17:33:00,67.8,66.6,29.80,West,270,6.8,-999.0,96,-99.99,,,0.10,Acu-Link.com,2013-09-12 21:33:00,
2013-09-12 17:48:00,67.5,66.9,29.80,SE,135,4.2,-999.0,98,-99.99,,,0.10,Acu-Link.com,2013-09-12 21:48:00,
2013-09-12 18:03:00,67.3,67.0,29.80,WNW,292,2.2,-999.0,99,-99.99,,,0.10,Acu-Link.com,2013-09-12 22:03:00,
2013-09-12 18:19:00,67.1,66.8,29.80,NW,315,3.7,-999.0,99,-99.99,,,0.10,Acu-Link.com,2013-09-12 22:19:00,
2013-09-12 18:34:00,67.3,67.0,29.82,SSW,202,2.7,-999.0,99,-99.99,,,0.10,Acu-Link.com,2013-09-12 22:34:00,
2013-09-12 18:49:00,66.7,66.4,29.81,West,270,4.2,-999.0,99,-99.99,,,0.10,Acu-Link.com,2013-09-12 22:49:00,
2013-09-12 19:04:00,66.7,66.4,29.80,NNW,337,2.7,-999.0,99,-99.99,,,0.10,Acu-Link.com,2013-09-12 23:04:00,
2013-09-12 19:19:00,66.4,66.1,29.81,WNW,292,2.7,-999.0,99,-99.99,,,0.10,Acu-Link.com,2013-09-12 23:19:00,
2013-09-12 19:35:00,66.2,65.9,29.80,WNW,292,2.2,-999.0,99,-99.99,,,0.10,Acu-Link.com,2013-09-12 23:35:00,
2013-09-12 19:50:00,66.2,65.9,29.80,NNW,337,2.2,-999.0,99,-99.99,,,0.10,Acu-Link.com,2013-09-12 23:50:00,
2013-09-12 20:05:00,65.8,65.5,29.80,East,90,2.7,-999.0,99,-99.99,,,0.10,Acu-Link.com,2013-09-13 00:05:00,
2013-09-12 20:20:00,65.8,65.5,29.80,West,270,2.7,-999.0,99,-99.99,,,0.10,Acu-Link.com,2013-09-13 00:20:00,
2013-09-12 20:36:00,65.8,65.5,29.80,WNW,292,2.2,-999.0,99,-99.99,,,0.10,Acu-Link.com,2013-09-13 00:36:00,
2013-09-12 20:51:00,65.7,65.4,29.80,West,270,2.7,-999.0,99,-99.99,,,0.11,Acu-Link.com,2013-09-13 00:51:00,
2013-09-12 21:06:00,64.6,64.3,29.80,West,270,3.2,-999.0,99,-99.99,,,0.12,Acu-Link.com,2013-09-13 01:06:00,
2013-09-12 21:21:00,64.6,64.3,29.80,NW,315,0.0,-999.0,99,-99.99,,,0.12,Acu-Link.com,2013-09-13 01:21:00,
2013-09-12 21:37:00,64.0,63.7,29.80,SW,225,2.7,-999.0,99,-99.99,,,0.12,Acu-Link.com,2013-09-13 01:37:00,
2013-09-12 21:52:00,63.5,63.2,29.80,WNW,292,0.0,-999.0,99,-99.99,,,0.12,Acu-Link.com,2013-09-13 01:52:00,
2013-09-12 22:07:00,63.3,63.0,29.80,ENE,67,1.7,-999.0,99,-99.99,,,0.12,Acu-Link.com,2013-09-13 02:07:00,
2013-09-12 22:22:00,63.0,62.7,29.80,SW,225,0.0,-999.0,99,-99.99,,,0.12,Acu-Link.com,2013-09-13 02:22:00,
2013-09-12 22:37:00,62.4,62.1,29.80,West,270,2.2,-999.0,99,-99.99,,,0.12,Acu-Link.com,2013-09-13 02:37:00,
2013-09-12 22:53:00,62.6,62.3,29.79,SSW,202,0.0,-999.0,99,-99.99,,,0.12,Acu-Link.com,2013-09-13 02:53:00,
2013-09-12 23:08:00,62.6,62.3,29.79,ESE,112,1.1,-999.0,99,-99.99,,,0.12,Acu-Link.com,2013-09-13 03:08:00,
2013-09-12 23:23:00,62.4,62.1,29.78,WNW,292,5.3,-999.0,99,-99.99,,,0.12,Acu-Link.com,2013-09-13 03:23:00,
2013-09-12 23:39:00,62.1,61.8,29.80,West,270,2.2,-999.0,99,-99.99,,,0.17,Acu-Link.com,2013-09-13 03:39:00,
2013-09-12 23:54:00,61.3,61.0,29.79,West,270,1.7,-999.0,99,-99.99,,,0.19,Acu-Link.com,2013-09-13 03:54:00,